Silver City, NM

3:51 AM MDT on July 27, 2017 (GMT -0600)
Grant County

Weather History for KSVC - February, 2014

Change the Weather History Date:

Thursday, February 13, 2014

  Actual Average (KDMN) Record (KDMN)
Temperature  
Mean Temperature 52 °F -  
Max Temperature 71 °F 63 °F 80 °F (1957)
Min Temperature 33 °F 30 °F 7 °F (1963)
Degree Days  
Heating Degree Days 13    
Growing Degree Days 2 (Base 50)    
Moisture  
Dew Point 15 °F    
Average Humidity 25    
Maximum Humidity 45    
Minimum Humidity 12    
Precipitation  
Precipitation 0.00 in - - ()
Sea Level Pressure  
Sea Level Pressure 30.13 in    
Wind  
Wind Speed 12 mph (NW)    
Max Wind Speed 23 mph    
Max Gust Speed 29 mph    
Visibility 10 miles    
Events      
Averages and records for this station are not official NWS values.
T = Trace of Precipitation, MM = Missing Value Source: NWS Daily Summary

Daily Weather History Graph

Daily Weather History Graph

Search for Another Location

Airport or City:

Trip Planner

Search our weather history database for the weather conditions in past years. The results will help you decide how hot, cold, wet, or windy it might be!

Date:

Astronomy

Feb. 13, 2014 Rise Set
Actual Time 6:57 AM MST 5:56 PM MST
Civil Twilight 6:32 AM MST 6:21 PM MST
Nautical Twilight 6:03 AM MST 6:50 PM MST
Astronomical Twilight 5:34 AM MST 7:19 PM MST
Moon 5:07 PM MST (2/13) 5:51 AM MST (2/13)
Length of Visible Light 11h 49m
Length of Day
10h 59m
Waxing Gibbous, 99% of the Moon is Illuminated
Feb 13
Waxing Gibbous
Feb 14
Full
Feb 22
Last Quarter
Mar 1
New
Mar 8
First Quarter

Hourly Weather History & Observations

Time (MST) Temp. Windchill Dew Point Humidity Pressure Visibility Wind Dir Wind Speed Gust Speed Precip Events Conditions
12:15 AM 44.6 °F 39.2 °F 8.6 °F 23% 30.14 in 10.0 mi NNW 10.4 mph - N/A   Clear
12:35 AM 42.8 °F 36.2 °F 8.6 °F 25% 30.14 in 10.0 mi NW 12.7 mph - N/A   Clear
12:55 AM 42.8 °F 35.4 °F 8.6 °F 25% 30.13 in 10.0 mi NW 15.0 mph - N/A   Clear
1:15 AM 41.0 °F 34.3 °F 8.6 °F 26% 30.14 in 10.0 mi NNW 11.5 mph - N/A   Clear
1:35 AM 44.6 °F 38.1 °F 8.6 °F 23% 30.13 in 10.0 mi NW 13.8 mph - N/A   Clear
1:55 AM 44.6 °F 38.1 °F 8.6 °F 23% 30.13 in 10.0 mi NNW 13.8 mph - N/A   Clear
2:15 AM 44.6 °F 38.8 °F 10.4 °F 25% 30.14 in 10.0 mi NNW 11.5 mph - N/A   Clear
2:35 AM 41.0 °F 35.2 °F 10.4 °F 29% 30.14 in 10.0 mi NNW 9.2 mph - N/A   Clear
2:55 AM 41.0 °F 36.4 °F 10.4 °F 29% 30.14 in 10.0 mi NNW 6.9 mph - N/A   Clear
3:15 AM 44.6 °F 38.8 °F 10.4 °F 25% 30.14 in 10.0 mi North 11.5 mph - N/A   Clear
3:35 AM 41.0 °F 33.9 °F 10.4 °F 29% 30.13 in 10.0 mi NW 12.7 mph - N/A   Clear
3:55 AM 41.0 °F 33.5 °F 10.4 °F 29% 30.14 in 10.0 mi NW 13.8 mph - N/A   Clear
4:15 AM 41.0 °F 34.3 °F 10.4 °F 29% 30.14 in 10.0 mi NNW 11.5 mph - N/A   Clear
4:35 AM 39.2 °F 33.0 °F 10.4 °F 31% 30.14 in 10.0 mi NNW 9.2 mph - N/A   Clear
4:55 AM 39.2 °F 32.0 °F 12.2 °F 33% 30.15 in 10.0 mi North 11.5 mph - N/A   Clear
5:15 AM 37.4 °F 29.8 °F 14.0 °F 38% 30.15 in 10.0 mi North 11.5 mph - N/A   Clear
5:35 AM 35.6 °F 27.5 °F 12.2 °F 38% 30.15 in 10.0 mi NNW 11.5 mph - N/A   Clear
5:55 AM 33.8 °F 25.8 °F 14.0 °F 44% 30.15 in 10.0 mi NNW 10.4 mph - N/A   Clear
6:15 AM 35.6 °F 27.5 °F 15.8 °F 44% 30.16 in 10.0 mi NW 11.5 mph - N/A   Clear
6:35 AM 37.4 °F 29.3 °F 17.6 °F 45% 30.16 in 10.0 mi NW 12.7 mph - N/A   Clear
6:55 AM 37.4 °F 30.3 °F 17.6 °F 45% 30.17 in 10.0 mi NNW 10.4 mph - N/A   Clear
7:15 AM 37.4 °F 32.1 °F 17.6 °F 45% 30.17 in 10.0 mi NNW 6.9 mph - N/A   Clear
7:35 AM 39.2 °F 33.6 °F 17.6 °F 42% 30.18 in 10.0 mi NNW 8.1 mph - N/A   Clear
7:55 AM 44.6 °F 39.2 °F 19.4 °F 37% 30.18 in 10.0 mi NW 10.4 mph - N/A   Clear
8:15 AM 46.4 °F 41.5 °F 19.4 °F 34% 30.19 in 10.0 mi NW 10.4 mph - N/A   Clear
8:35 AM 50.0 °F - 19.4 °F 30% 30.19 in 10.0 mi NW 11.5 mph - N/A   Clear
8:55 AM 53.6 °F - 17.6 °F 24% 30.20 in 10.0 mi NW 10.4 mph - N/A   Clear
9:15 AM 57.2 °F - 19.4 °F 23% 30.20 in 10.0 mi NW 10.4 mph - N/A   Clear
9:35 AM 59.0 °F - 19.4 °F 22% 30.21 in 10.0 mi NW 8.1 mph - N/A   Clear
9:55 AM 60.8 °F - 19.4 °F 20% 30.21 in 10.0 mi NW 8.1 mph - N/A   Clear
10:15 AM 62.6 °F - 19.4 °F 19% 30.21 in 10.0 mi WNW 11.5 mph - N/A   Clear
10:35 AM 64.4 °F - 19.4 °F 18% 30.21 in 10.0 mi West 11.5 mph - N/A   Clear
10:55 AM 64.4 °F - 17.6 °F 16% 30.20 in 10.0 mi West 15.0 mph 19.6 mph N/A   Clear
11:15 AM 66.2 °F - 17.6 °F 15% 30.19 in 10.0 mi West 15.0 mph 20.7 mph N/A   Clear
11:35 AM 66.2 °F - 17.6 °F 15% 30.18 in 10.0 mi West 16.1 mph - N/A   Clear
11:55 AM 66.2 °F - 17.6 °F 15% 30.17 in 10.0 mi West 11.5 mph - N/A   Clear
12:35 PM 68.0 °F - 15.8 °F 13% 30.14 in 10.0 mi WNW 15.0 mph 18.4 mph N/A   Clear
12:55 PM 68.0 °F - 15.8 °F 13% 30.13 in 10.0 mi West 15.0 mph 21.9 mph N/A   Clear
1:15 PM 68.0 °F - 15.8 °F 13% 30.12 in 10.0 mi WNW 15.0 mph 23.0 mph N/A   Clear
1:35 PM 68.0 °F - 15.8 °F 13% 30.11 in 10.0 mi WNW 21.9 mph - N/A   Clear
1:55 PM 69.8 °F - 15.8 °F 13% 30.10 in 10.0 mi West 20.7 mph 26.5 mph N/A   Clear
2:15 PM 69.8 °F - 15.8 °F 13% 30.09 in 10.0 mi West 18.4 mph 28.8 mph N/A   Clear
2:35 PM 71.6 °F - 15.8 °F 12% 30.08 in 10.0 mi West 17.3 mph - N/A   Clear
2:55 PM 71.6 °F - 17.6 °F 13% 30.07 in 10.0 mi WNW 19.6 mph 25.3 mph N/A   Clear
3:15 PM 69.8 °F - 17.6 °F 14% 30.08 in 10.0 mi West 16.1 mph 25.3 mph N/A   Clear
3:35 PM 71.6 °F - 17.6 °F 13% 30.07 in 10.0 mi WNW 23.0 mph - N/A   Clear
3:55 PM 71.6 °F - 17.6 °F 13% 30.07 in 10.0 mi WNW 20.7 mph 24.2 mph N/A   Clear
4:15 PM 69.8 °F - 15.8 °F 13% 30.07 in 10.0 mi West 17.3 mph - N/A   Clear
4:35 PM 69.8 °F - 15.8 °F 13% 30.07 in 10.0 mi West 16.1 mph 20.7 mph N/A   Clear
4:55 PM 68.0 °F - 17.6 °F 15% 30.07 in 10.0 mi West 10.4 mph 19.6 mph N/A   Clear
5:15 PM 66.2 °F - 17.6 °F 15% 30.08 in 10.0 mi West 11.5 mph 19.6 mph N/A   Clear
5:35 PM 66.2 °F - 17.6 °F 15% 30.08 in 10.0 mi West 12.7 mph - N/A   Clear
5:55 PM 64.4 °F - 17.6 °F 16% 30.08 in 10.0 mi West 10.4 mph - N/A   Clear
6:15 PM 59.0 °F - 15.8 °F 19% 30.09 in 10.0 mi WNW 6.9 mph - N/A   Clear
6:55 PM 55.4 °F - 15.8 °F 21% 30.09 in 10.0 mi NW 9.2 mph - N/A   Clear
7:15 PM 50.0 °F - 15.8 °F 26% 30.10 in 10.0 mi NNW 8.1 mph - N/A   Clear
7:35 PM 50.0 °F - 15.8 °F 26% 30.11 in 10.0 mi North 11.5 mph - N/A   Clear
7:55 PM 50.0 °F - 15.8 °F 26% 30.12 in 10.0 mi North 10.4 mph - N/A   Clear
8:15 PM 50.0 °F - 15.8 °F 26% 30.13 in 10.0 mi North 12.7 mph - N/A   Clear
8:35 PM 46.4 °F 41.9 °F 15.8 °F 29% 30.13 in 10.0 mi NNW 9.2 mph - N/A   Clear
8:55 PM 42.8 °F 37.0 °F 15.8 °F 34% 30.13 in 10.0 mi North 10.4 mph - N/A   Clear
9:15 PM 44.6 °F 39.2 °F 15.8 °F 31% 30.13 in 10.0 mi NW 10.4 mph - N/A   Clear
9:35 PM 41.0 °F 34.3 °F 15.8 °F 36% 30.13 in 10.0 mi North 11.5 mph - N/A   Clear
9:55 PM 41.0 °F 34.3 °F 15.8 °F 36% 30.13 in 10.0 mi NNW 11.5 mph - N/A   Clear
10:15 PM 41.0 °F 33.9 °F 15.8 °F 36% 30.12 in 10.0 mi NNW 12.7 mph - N/A   Clear
10:35 PM 41.0 °F 33.9 °F 15.8 °F 36% 30.11 in 10.0 mi NNW 12.7 mph - N/A   Clear
10:55 PM 41.0 °F 33.5 °F 15.8 °F 36% 30.11 in 10.0 mi NNW 13.8 mph - N/A   Clear
11:15 PM 46.4 °F 40.1 °F 15.8 °F 29% 30.12 in 10.0 mi NNW 15.0 mph - N/A   Clear
11:35 PM 48.2 °F - 15.8 °F 27% 30.12 in 10.0 mi NW 15.0 mph - N/A   Clear
11:55 PM 46.4 °F 40.4 °F 17.6 °F 32% 30.13 in 10.0 mi NNW 13.8 mph - N/A   Clear